"Pseudo-MPEC" for P10OpLk

Created 2019 Jun 15 19:09:18 UT using Find_Orb

Click here for an explanation of pseudo-MPECs

 
 Astrometry: 
     P10OpLk  C2019 05 31Vl;/8vny(h74jg#Tx7pZCK$c@OW5Astrometry1gZgYOvqKjK-2bF51
     P10OpLk  C2019 05 31AW*xe(j[g,AP'Jbp[O*.YyZ^C+k0GfAQ?,3/B*v(%'/OiZ1rdgxfF51
     P10OpLk  C2019 05 31`6dE\tmH;xg!fPCJ'O.i$QIiI4W)fwDai^56aredacted;*5N`UYF51
     P10OpLk  C2019 05 31]%`cTHS2SVj3_00]3LMqacXFRa,atCf4-t6:-ip/Eav^K,B^XI0tF51
     P10OpLk |C2019 06 02fhts)ZZW#!kdu'$(JukI6gbaN^`-04MR.F6B'm(9dW@C:kr_nb'V807
     P10OpLk |C2019 06 02#U:#;!g*O@luV5V#i^Sp7P0\HoPdv-h+!E!#3+R-QM=f*@UB]clN807
     P10OpLk |C2019 06 02m0L`ZGbIHc[HXBy+_@i%uf8Xj,5a;6=9%?ahEvj#jc#0,\_ryRQC807
     P10OpLk |C2019 06 04^fD:'9PxUi$O*Ft7Rx'click;here!kG^*t7\%Z@EX4Ke$[.(09)807
     P10OpLk |C2019 06 04*s@\r!QMFSeP'3,7-QforoB1ua5VIrfb!J\Aa.v8[BEGLL#_2:Gc807
     P10OpLk |C2019 06 04dCN_*d;S\[p7_,2F:.9O*^vVepw:=;X`i=DS2QimGS-8S!lQ*+M;807
     P10OpLk  C2019 06 04.21574 15 01 40.25 -35 00 14.6    ~646M       VNEOCPI52
     P10OpLk  C2019 06 04.21992 15 01 39.99 -35 00 10.6    ~646M       VNEOCPI52
     P10OpLk  C2019 06 04.23247 15 01 39.25 -34 59 59.0    ~646M 20.6 GVNEOCPI52
     P10OpLk  C2019 06 07p'1GvNbThRr2_^c),ec_rltV_KaDRVnZg;Vo$d]06oIu2R'w@pr2F51
     P10OpLk  C2019 06 07DNKoio!Ec[fYk[]VrGlAJgTWnQMh!E!EMLnqvp9+]rwr/SkVEf'gF51
     P10OpLk  C2019 06 07@85Le$MdYM7_u.[k%uwbmNZ#'%3lnGf,]8q;@[tGM3B5oh:DeVkmF51
     P10OpLk  C2019 06 08kHNJ\.*V]kmObIx6p%I9:r'/Fe.m00A[lOQQ+4BRd^:g6*^oTQdLF51
     P10OpLk  C2019 06 082sCX8Qexplanation%IaF*.u59[J5ghM\Udfm3@DwGVpjh/Am2\9F51
     P10OpLk KC2019 06 10DiQ]$UrkwFM-d:Q4EO[UyKD.F7t]+6'tB?RQ7CO7q6Ue6-y[\[7[291
     P10OpLk KC2019 06 10`5D-j1/K_+j7\\5eM,!)Kl6J'L_r--+a4$+y3V_r!PT]et0KO9vu291
     P10OpLk KC2019 06 10)!#U:u=:]!q,Jm=ce:@UYne+wY[s\PrQKik.kGYLS*?Jm+ha%CAM291

Station data:
(291) LPL/Spacewatch II  (N31.961669 W111.599905)  US/Arizona.  Observers J.
   V. Scotti, R. S. McMillan. 1.8-m f/2.7 reflector + CCD.
(807) Cerro Tololo Observatory, La Serena  (S30.169136 W70.805900)  Chile.
(F51) Pan-STARRS 1, Haleakala  (N20.707235 W156.255910)  US/Hawaii.
   Observers N. Primak, A. Schultz, S. Watters, J. Thiel, T. Goggia. Measurer
   PS1 Science Consortium. 1.8-m Ritchey-Chrétien + CCD.
(I52) Steward Observatory, Mt. Lemmon Station  (N32.442547 W110.788920)
   US/Arizona.  Observers T. A. Pruyne, B. M. Africano, E. J. Christensen, G.
   A. Farneth, D. C. Fuls, A. R. Gibbs, A. D. Grauer, H. Groeller, J. A.
   Johnson, R. A. Kowalski, S. M. Larson, G. J. Leonard, R. L. Seaman, F. C.
   Shelly. 1.0-m reflector + CCD.

Orbital elements:  P10OpLk
   Perihelion 2020 Apr 24.080299 +/- 1.56 TT =  1:55:37 (JD 2458963.580299)
Epoch 2019 Jun 10.0 TT = JDT 2458644.5   Earth MOID: 0.8549   AutoNEOCP
M 243.95702926 +/- 0.59             (J2000 ecliptic)
n   0.36367952 +/- 0.000273         Peri.   95.51160 +/- 0.51
a   1.94382345 +/- 0.000974         Node   273.27421 +/- 0.039
e   0.0929172 +/- 0.000425          Incl.   17.34497 +/- 0.026
P   2.71/989.86d           H 18.5   G  0.15   U  7.3  
q 1.76320875 +/- 0.000509    Q 2.12443815 +/- 0.00181
From 21 observations 2019 May 31-June 10; mean residual 0".24
Residuals in arcseconds: 
190531 F51  .07+  .12-    190604 807  .16-  .20+    190607 F51  .15+  .09+    
190531 F51  .09+  .06-    190604 807  .33+  .09+    190607 F51  .01-  .08+    
190531 F51  .07+  .14-    190604 807  .16-  .18+    190608 F51  .05-  .02+    
190531 F51  .03+  .04-    190604 I52  .21+  .01-    190608 F51  .01+  .07+    
190602 807  .06+  .16+    190604 I52  .03+  .16-    190610 291  .23+  .05-    
190602 807  .02+  .28+    190604 I52  .01-  1.0-    190610 291  .36-  .04+    
190602 807  .60-  .46+    190607 F51  .03+  .11+    190610 291  .05+  .06-    

Ephemerides (geocentric):
Date (UTC) HH   RA              Dec         delta   r     elong  mag " sig PA
---- -- -- --  -------------   -----------  ------ ------ -----  --- ---- ---
2019 06 15 19  14 53 40.798   -31 46 52.47  1.1213 2.0303 143.6 21.2 1.10  66
2019 06 15 20  14 53 39.673   -31 46 11.43  1.1215 2.0303 143.5 21.2 1.11  66
2019 06 15 21  14 53 38.553   -31 45 30.40  1.1217 2.0302 143.5 21.2 1.12  66
2019 06 15 22  14 53 37.437   -31 44 49.38  1.1219 2.0302 143.5 21.2 1.13  66
2019 06 15 23  14 53 36.325   -31 44 08.38  1.1221 2.0302 143.4 21.2 1.14  66
2019 06 16 00  14 53 35.218   -31 43 27.38  1.1223 2.0301 143.4 21.2 1.15  66
2019 06 16 01  14 53 34.115   -31 42 46.40  1.1224 2.0301 143.3 21.3 1.16  66
2019 06 16 02  14 53 33.017   -31 42 05.43  1.1226 2.0300 143.3 21.3 1.17  66
2019 06 16 03  14 53 31.923   -31 41 24.47  1.1228 2.0300 143.3 21.3 1.18  66
2019 06 16 04  14 53 30.833   -31 40 43.52  1.1230 2.0300 143.2 21.3 1.19  67
2019 06 16 05  14 53 29.748   -31 40 02.58  1.1232 2.0299 143.2 21.3 1.20  67
2019 06 16 06  14 53 28.667   -31 39 21.65  1.1234 2.0299 143.2 21.3 1.21  67
2019 06 16 07  14 53 27.590   -31 38 40.74  1.1236 2.0298 143.1 21.3 1.22  67
2019 06 16 08  14 53 26.518   -31 37 59.84  1.1238 2.0298 143.1 21.3 1.23  67
2019 06 16 09  14 53 25.450   -31 37 18.95  1.1240 2.0298 143.0 21.3 1.24  67
2019 06 16 10  14 53 24.387   -31 36 38.07  1.1242 2.0297 143.0 21.3 1.25  67
2019 06 16 11  14 53 23.327   -31 35 57.20  1.1244 2.0297 143.0 21.3 1.26  67
2019 06 16 12  14 53 22.273   -31 35 16.34  1.1246 2.0296 142.9 21.3 1.27  67
2019 06 16 13  14 53 21.222   -31 34 35.50  1.1248 2.0296 142.9 21.3 1.29  67
2019 06 16 14  14 53 20.176   -31 33 54.67  1.1250 2.0296 142.8 21.3 1.30  67
2019 06 16 15  14 53 19.135   -31 33 13.85  1.1252 2.0295 142.8 21.3 1.31  67
2019 06 16 16  14 53 18.098   -31 32 33.04  1.1254 2.0295 142.8 21.3 1.32  67
2019 06 16 17  14 53 17.065   -31 31 52.25  1.1256 2.0294 142.7 21.3 1.33  67
2019 06 16 18  14 53 16.036   -31 31 11.47  1.1258 2.0294 142.7 21.3 1.34  67
2019 06 16 19  14 53 15.012   -31 30 30.70  1.1260 2.0294 142.6 21.3 1.35  67
2019 06 16 20  14 53 13.993   -31 29 49.94  1.1262 2.0293 142.6 21.3 1.36  67
2019 06 16 21  14 53 12.977   -31 29 09.19  1.1264 2.0293 142.6 21.3 1.37  67
2019 06 16 22  14 53 11.966   -31 28 28.46  1.1266 2.0292 142.5 21.3 1.38  67
2019 06 16 23  14 53 10.960   -31 27 47.74  1.1268 2.0292 142.5 21.3 1.39  67
2019 06 17 00  14 53 09.958   -31 27 07.03  1.1270 2.0291 142.4 21.3 1.40  67
2019 06 17 01  14 53 08.960   -31 26 26.34  1.1272 2.0291 142.4 21.3 1.42  67
2019 06 17 02  14 53 07.966   -31 25 45.65  1.1275 2.0291 142.4 21.3 1.43  67
2019 06 17 03  14 53 06.977   -31 25 04.98  1.1277 2.0290 142.3 21.3 1.44  68
2019 06 17 04  14 53 05.992   -31 24 24.33  1.1279 2.0290 142.3 21.3 1.45  68
2019 06 17 05  14 53 05.012   -31 23 43.68  1.1281 2.0289 142.2 21.3 1.46  68
2019 06 17 06  14 53 04.036   -31 23 03.05  1.1283 2.0289 142.2 21.3 1.47  68
2019 06 17 07  14 53 03.064   -31 22 22.43  1.1285 2.0289 142.2 21.3 1.48  68
2019 06 17 08  14 53 02.097   -31 21 41.83  1.1287 2.0288 142.1 21.3 1.49  68
2019 06 17 09  14 53 01.134   -31 21 01.24  1.1289 2.0288 142.1 21.3 1.51  68
2019 06 17 10  14 53 00.176   -31 20 20.66  1.1291 2.0287 142.0 21.3 1.52  68
2019 06 17 11  14 52 59.222   -31 19 40.09  1.1293 2.0287 142.0 21.3 1.53  68
2019 06 17 12  14 52 58.272   -31 18 59.54  1.1295 2.0287 142.0 21.3 1.54  68
2019 06 17 13  14 52 57.327   -31 18 19.00  1.1297 2.0286 141.9 21.3 1.55  68
2019 06 17 14  14 52 56.386   -31 17 38.47  1.1299 2.0286 141.9 21.3 1.56  68
2019 06 17 15  14 52 55.449   -31 16 57.96  1.1301 2.0285 141.8 21.3 1.58  68
2019 06 17 16  14 52 54.517   -31 16 17.46  1.1303 2.0285 141.8 21.3 1.59  68
2019 06 17 17  14 52 53.589   -31 15 36.98  1.1305 2.0285 141.8 21.3 1.60  68
2019 06 17 18  14 52 52.665   -31 14 56.50  1.1308 2.0284 141.7 21.3 1.61  68